TSO393 UUWW-LIPZ

Flight info

Callsign TSO393
Flight time N/A
Altitude 36000
Route POKAG N858 VEPIS Y219 LAPKI L999 MNS T52 RAVOK L856 TOSPO/N0436F360 L856 IXOGA/N0443F380 L856 BABKO DCT MAREG DCT MOVOS DCT NIPEL DCT TIBRO/N0330F190 Q707 GIKUS
Aircraft B738/M-SDE2E3FGHIRWXY/LB1

Departure

Time 2026-04-28 10:54
Airport Vnukovo International Airport (UUWW)

Arrival

Time N/A
Airport Venice Marco Polo Airport (LIPZ)
Time Latitude Longitude Altitude Speed Heading
2026-04-28 10:24 55.60403 37.28136 699 ft 0 kts 156°
2026-04-28 10:41 55.60413 37.28129 699 ft 2 kts 155°
2026-04-28 10:41 55.60427 37.28118 699 ft 2 kts 155°
2026-04-28 10:41 55.60441 37.28108 699 ft 2 kts 155°
2026-04-28 10:42 55.60455 37.28097 699 ft 2 kts 155°
2026-04-28 10:42 55.60468 37.28086 699 ft 2 kts 155°
2026-04-28 10:42 55.60482 37.28076 699 ft 2 kts 155°
2026-04-28 10:42 55.60496 37.28066 699 ft 2 kts 175°
2026-04-28 10:43 55.60511 37.28069 699 ft 2 kts 198°
2026-04-28 10:43 55.60524 37.28081 699 ft 2 kts 221°
2026-04-28 10:43 55.60531 37.28094 699 ft 1 kts 229°
2026-04-28 10:43 55.60532 37.28095 699 ft 0 kts 229°
2026-04-28 10:47 55.60526 37.28085 699 ft 3 kts 229°
2026-04-28 10:48 55.60499 37.28034 699 ft 7 kts 226°
2026-04-28 10:48 55.60462 37.27966 699 ft 8 kts 226°
2026-04-28 10:48 55.60415 37.27877 699 ft 10 kts 216°
2026-04-28 10:48 55.60336 37.27852 699 ft 11 kts 186°
2026-04-28 10:49 55.60261 37.27836 699 ft 10 kts 184°
2026-04-28 10:49 55.60197 37.27841 698 ft 9 kts 172°
2026-04-28 10:49 55.60108 37.27875 698 ft 14 kts 215°
2026-04-28 10:49 55.60031 37.27768 698 ft 13 kts 179°
2026-04-28 10:50 55.59966 37.27874 698 ft 12 kts 119°
2026-04-28 10:50 55.59936 37.28023 698 ft 12 kts 98°
2026-04-28 10:50 55.59936 37.28180 698 ft 12 kts 86°
2026-04-28 10:50 55.59927 37.28325 698 ft 12 kts 121°
2026-04-28 10:51 55.59879 37.28421 698 ft 11 kts 131°
2026-04-28 10:51 55.59880 37.28542 698 ft 11 kts 69°
2026-04-28 10:51 55.59908 37.28674 698 ft 11 kts 69°
2026-04-28 10:51 55.59937 37.28807 698 ft 11 kts 69°
2026-04-28 10:52 55.59925 37.28934 698 ft 11 kts 139°
2026-04-28 10:52 55.59856 37.28976 698 ft 9 kts 166°
2026-04-28 10:52 55.59808 37.28980 698 ft 8 kts 202°
2026-04-28 10:52 55.59786 37.28951 698 ft 5 kts 238°
2026-04-28 10:53 55.59775 37.28900 698 ft 0 kts 246°
2026-04-28 10:53 55.59775 37.28899 698 ft 1 kts 246°
2026-04-28 10:53 55.59712 37.28616 698 ft 56 kts 248°
2026-04-28 10:53 55.59494 37.27634 698 ft 113 kts 248°
2026-04-28 10:54 55.59143 37.26102 756 ft 152 kts 251°
2026-04-28 10:54 55.58996 37.25420 950 ft 152 kts 251°
2026-04-28 10:54 55.58620 37.23773 1752 ft 143 kts 245°
2026-04-28 10:54 55.58020 37.22339 2288 ft 153 kts 238°
2026-04-28 10:55 55.57352 37.20822 2700 ft 160 kts 242°
2026-04-28 10:55 55.56691 37.19159 3029 ft 174 kts 243°
2026-04-28 10:55 55.55974 37.17345 3349 ft 188 kts 243°
2026-04-28 10:55 55.55197 37.15345 3619 ft 206 kts 246°
2026-04-28 10:56 55.54701 37.12998 4056 ft 208 kts 270°
2026-04-28 10:56 55.54784 37.10437 4508 ft 216 kts 282°
2026-04-28 10:56 55.55024 37.07716 4940 ft 229 kts 281°
2026-04-28 10:56 55.55231 37.04890 5510 ft 236 kts 280°
2026-04-28 10:57 55.55407 37.02021 6171 ft 240 kts 279°
2026-04-28 10:57 55.55577 36.99057 6870 ft 243 kts 279°
2026-04-28 10:57 55.55747 36.96105 7584 ft 245 kts 279°
2026-04-28 10:57 55.55939 36.92779 8365 ft 248 kts 280°